SCP
0 0 0 0 0 0 0 0 0 0 0 0 0 0 0 0 0 0 0 0 0 1 1 1 0 0 0 0 0 0 0 0 0 0 0 0 0 0 0 0 0 0 0
0 0 0 0 0 0 0 0 0 0 0 0 0 0 0 0 0 0 0 0 0 1 1 1 0 0 0 0 0 0 0 0 0 0 1 1 0 0 0 0 0 0 0
0 0 0 0 0 0 0 0 0 0 0 0 0 0 0 0 0 0 0 0 0 1 1 1 0 0 0 0 0 0 0 0 0 0 1 1 0 0 0 0 0 0 0
0 0 0 0 0 0 0 0 0 0 0 0 0 0 0 0 0 0 0 0 0 1 1 0 0 0 0 0 0 0 0 0 0 0 0 0 0 0 0 0 0 0 0
1 0 0 0 0 0 0 0 0 0 0 0 0 0 0 0 0 0 0 0 0 0 0 0 0 0 0 0 0 0 0 0 0 0 0 0 0 0 0 0 0 0 0
1 1 1 0 0 0 0 0 0 0 0 0 0 0 0 0 0 0 0 0 0 0 0 0 0 0 0 0 0 0 0 0 0 0 0 0 0 0 0 0 0 0 0
1 1 1 0 0 0 0 0 0 0 0 0 0 0 0 0 0 0 0 0 0 0 0 0 0 0 0 0 0 0 0 0 0 0 0 0 0 0 0 0 0 0 0
1 1 0 0 0 0 0 0 0 0 0 0 0 0 0 0 0 0 0 0 0 0 0 0 0 0 0 0 0 0 0 0 0 0 0 0 0 0 0 0 0 0 0
1 1 0 0 0 0 0 0 0 0 0 0 0 0 0 0 0 0 0 0 0 0 0 0 0 0 0 0 0 0 0 0 0 0 0 0 0 0 0 0 0 0 0
1 1 1 0 0 0 0 0 0 0 0 0 0 0 0 0 0 0 0 0 0 0 0 0 0 0 0 0 0 0 0 0 0 0 0 0 0 0 0 0 0 0 0
1 1 1 0 0 0 0 0 0 0 0 0 0 0 0 0 0 0 0 0 0 0 0 0 0 0 0 0 0 0 0 0 0 0 0 0 0 0 0 0 0 0 0
1 1 1 1 1 0 0 0 0 0 0 0 0 0 0 0 0 0 0 0 0 0 0 0 0 0 0 0 0 0 0 0 0 0 0 0 0 0 0 0 0 0 0
1 1 1 1 1 1 0 0 0 0 0 0 0 0 0 0 0 0 0 0 0 0 0 0 0 0 0 0 0 0 0 0 0 0 0 0 0 0 0 0 0 0 0
1 1 1 1 1 1 1 1 0 0 0 0 0 0 0 0 0 0 0 0 0 0 0 0 0 0 0 0 0 0 0 0 0 0 0 0 0 0 0 0 0 0 0
1 1 1 1 1 1 1 1 1 0 0 0 0 0 0 0 0 0 0 0 0 0 0 0 0 0 0 0 0 0 0 0 0 0 0 0 0 0 0 0 0 0 0
1 1 1 1 1 1 1 1 1 0 0 0 0 0 0 0 0 0 0 0 0 0 0 0 0 0 0 0 0 0 0 0 0 0 0 0 0 0 0 0 0 0 0
1 1 1 1 1 1 1 1 1 0 0 0 0 0 0 0 0 0 0 0 0 0 0 0 0 0 0 0 0 0 0 0 0 0 0 0 0 0 0 0 0 0 0
1 1 2 2 1 1 1 1 1 0 0 0 0 0 0 0 0 0 0 0 0 0 0 0 0 0 0 0 0 0 0 0 0 0 0 0 0 0 0 0 0 0 0
1 1 2 2 1 1 1 1 1 0 0 0 0 0 0 0 0 0 0 0 0 0 0 0 0 0 0 0 0 0 0 0 0 0 0 0 0 0 0 0 0 0 0
1 1 2 2 1 1 1 1 1 1 0 0 0 0 0 0 0 0 0 0 0 0 0 0 0 0 0 0 0 0 0 0 0 0 0 0 0 0 0 0 0 0 0
1 1 2 2 1 1 1 1 1 1 0 0 0 0 0 0 0 0 0 0 0 0 0 0 0 0 0 0 0 0 0 0 0 0 0 0 0 0 0 0 0 0 0
1 1 2 1 1 1 0 0 1 1 0 0 0 0 0 0 0 0 0 0 0 0 0 0 0 0 0 0 0 0 0 0 0 0 0 0 0 0 0 0 0 0 0
1 1 1 1 1 1 0 0 0 0 0 0 0 0 0 0 0 0 0 0 0 0 0 0 0 0 0 0 0 0 0 0 0 0 0 0 0 0 0 0 0 0 0
1 1 1 1 1 1 0 0 0 0 0 0 0 0 0 0 1 1 0 0 0 0 0 0 0 0 0 0 0 0 0 0 0 0 0 0 0 0 0 0 0 0 0
1 1 1 1 1 1 0 0 0 0 0 0 0 0 0 0 0 0 0 0 0 0 0 0 0 0 0 0 0 0 0 0 0 0 0 0 0 0 0 0 0 0 0
2 1 1 1 1 1 0 0 0 0 0 0 0 0 0 0 0 0 0 0 0 0 0 0 0 0 0 0 0 0 0 0 0 0 0 0 0 0 0 0 0 0 0
Wind_Speed
4 4 2 2 2 2 2 2 1 1 1 2 4 6 6 5 5 4 3 10 10 9 10 10 9 9 8 8 8 7 7 7 7 6 7 7 8 7 7 7 7 7 6
5 4 3 3 2 2 2 2 2 2 1 2 4 5 6 5 4 4 3 5 9 9 9 9 9 8 8 8 8 7 7 7 7 6 6 6 7 7 7 7 7 6 6
6 5 4 3 3 2 3 2 2 2 2 2 3 4 5 5 5 5 4 2 4 7 9 9 8 8 8 8 7 7 6 6 6 6 6 6 6 6 6 7 7 7 6
6 5 4 3 3 2 2 3 2 2 2 2 2 2 3 4 5 5 4 4 3 3 6 9 8 7 8 7 7 7 6 6 5 5 6 6 6 6 6 6 6 7 7
6 5 4 3 3 3 2 2 2 2 2 2 2 2 2 3 4 5 4 5 4 3 3 6 8 7 7 7 7 7 7 6 6 5 5 6 6 6 6 6 6 7 7
6 5 3 3 3 3 2 2 3 2 2 2 2 2 1 1 2 3 4 4 3 4 4 3 3 4 7 6 6 6 6 6 6 6 6 5 5 5 5 5 6 6 7
5 5 4 3 3 3 3 3 2 2 1 1 3 2 3 1 1 2 2 3 4 4 4 4 3 2 2 5 5 6 6 6 6 6 5 5 4 4 4 5 5 6 6
5 5 5 4 4 3 3 3 3 2 1 2 3 3 2 3 2 0 1 3 4 3 4 5 4 3 2 1 3 5 6 6 6 5 5 4 4 3 3 3 4 5 6
5 5 5 4 4 4 3 3 3 4 2 0 2 4 4 3 1 2 1 2 3 3 3 3 4 4 4 2 2 4 6 6 6 6 5 5 4 3 3 3 3 4 5
5 5 5 5 4 4 4 3 3 3 3 2 0 1 2 4 3 0 2 1 2 3 3 4 4 4 4 3 3 5 6 5 5 5 5 5 5 4 4 4 5 5 5
5 5 5 5 4 4 4 3 3 3 3 3 2 1 1 1 2 3 1 1 1 1 2 3 3 3 4 4 3 5 6 6 5 5 5 5 5 5 6 6 6 7 6
3 5 6 5 5 4 4 4 4 4 3 3 2 2 2 2 2 3 2 2 2 2 2 2 2 3 3 4 5 7 7 7 6 6 6 6 6 6 6 7 7 8 8
4 5 6 5 4 4 4 4 4 3 3 3 2 2 2 2 2 3 3 2 1 1 1 1 2 3 4 3 4 8 8 8 8 7 7 7 7 7 7 7 7 8 8
5 6 6 6 6 5 5 4 3 3 3 3 3 2 2 1 2 3 4 4 2 1 1 2 1 2 3 3 5 8 5 9 9 8 8 8 8 8 8 8 8 8 8
5 7 7 6 6 5 5 5 3 3 3 3 3 2 2 1 1 1 2 4 5 3 2 3 2 2 2 3 5 4 4 8 10 9 9 9 9 10 10 9 9 9 9
7 8 7 6 6 5 5 5 3 3 4 3 2 3 2 1 2 2 2 2 3 4 3 3 3 2 2 3 5 4 5 8 10 11 11 11 11 11 11 11 11 10 10
8 8 8 7 7 6 6 5 4 4 4 3 2 3 2 2 2 1 2 2 2 3 3 2 1 1 1 2 2 3 4 4 4 10 12 12 12 12 12 12 12 12 11
8 9 8 7 7 7 6 6 6 5 5 4 3 3 3 2 2 1 1 1 1 2 3 2 1 1 2 3 2 3 3 4 4 8 11 12 12 12 12 12 12 12 12
9 8 8 9 8 7 7 6 6 5 5 5 5 5 4 4 3 2 2 1 1 1 2 2 2 1 2 1 1 2 3 3 4 5 7 9 11 11 11 12 12 12 13
10 10 9 9 8 8 7 7 6 5 5 5 5 5 5 5 5 4 3 3 2 1 1 1 1 2 2 2 0 2 3 3 3 3 4 5 7 9 10 11 12 12 13
11 9 9 8 8 7 8 8 7 6 5 5 5 5 6 7 8 6 4 4 3 2 2 1 1 1 2 1 2 2 2 3 3 2 2 3 3 3 5 8 10 12 13
9 8 9 9 9 8 10 12 9 6 6 6 5 5 5 6 8 9 9 9 8 5 4 3 3 3 4 3 3 2 2 1 3 3 1 4 2 4 5 5 9 12 12
8 8 9 9 9 9 12 13 13 8 7 7 7 5 5 5 6 5 7 8 8 9 9 6 5 6 5 5 3 3 3 4 5 4 1 4 3 4 5 6 11 12 12
8 8 8 9 8 9 12 13 13 8 6 7 7 7 7 5 5 6 5 5 6 6 7 6 6 7 6 5 5 4 4 4 4 4 3 4 4 4 5 5 9 11 11
7 7 8 9 8 8 12 13 11 5 5 6 6 7 7 7 8 9 6 6 6 6 7 9 10 9 9 9 5 2 2 2 4 4 3 4 4 4 4 5 7 10 10
7 7 7 8 8 7 10 13 12 5 5 5 4 5 8 8 8 9 6 6 7 6 4 4 5 7 7 7 8 6 5 4 4 4 4 3 3 2 4 4 4 4 5
Wind_Direction
158 158 161 160 167 169 165 167 177 171 153 144 140 142 148 157 159 160 169 173 169 169 168 168 169 169 168 167 166 167 166 162 159 161 164 161 159 158 157 158 157 156 157
159 157 159 166 181 183 172 168 165 152 140 130 138 147 155 161 165 163 170 178 177 174 174 172 173 177 177 178 178 179 177 172 170 171 172 173 171 171 171 172 173 171 170
156 154 155 166 181 168 149 132 118 103 111 118 134 145 155 163 165 168 169 171 180 183 181 179 179 182 181 181 181 180 179 177 175 178 179 183 185 183 185 186 186 185 184
154 151 155 162 161 145 129 123 110 94 90 105 126 149 150 157 166 172 173 175 180 185 188 187 184 187 186 185 184 180 179 175 172 178 184 190 194 195 196 198 198 197 199
153 149 152 154 147 134 128 138 114 124 120 122 140 140 140 154 169 177 176 180 184 180 184 196 190 191 194 193 191 189 185 181 182 185 187 194 200 200 204 206 208 208 208
153 144 143 144 137 129 128 121 122 114 132 143 120 102 119 155 166 174 179 177 180 183 181 187 186 200 200 193 191 190 187 184 187 194 197 200 204 204 209 213 215 217 217
150 145 141 138 140 141 152 143 123 111 103 109 82 50 13 19 160 179 174 166 180 185 177 180 183 188 200 199 195 192 193 190 191 193 195 196 201 209 217 220 223 226 229
152 153 144 148 145 135 134 133 122 119 107 123 123 104 45 355 338 207 178 177 184 180 183 190 186 188 187 182 205 199 202 201 198 196 194 194 197 202 212 227 229 230 234
153 145 150 146 148 148 152 151 140 134 137 110 140 141 147 198 276 329 262 189 179 177 187 192 196 198 195 185 200 211 206 204 206 207 200 194 190 196 210 228 239 243 242
156 150 151 148 151 153 154 159 144 140 135 142 168 143 156 155 149 190 320 291 204 184 188 202 199 195 190 181 196 198 201 204 205 203 201 198 202 214 226 237 246 250 251
164 158 156 151 151 153 156 148 133 132 139 148 158 147 106 98 119 139 204 280 307 246 209 205 187 185 187 183 192 203 201 201 199 202 211 218 224 230 236 244 253 258 259
171 168 161 157 156 156 158 152 143 139 136 134 136 140 148 150 170 150 168 206 233 271 247 219 201 190 188 190 201 197 198 201 205 212 222 231 238 243 246 250 256 262 263
176 181 167 162 161 162 161 150 142 143 143 133 138 140 148 167 164 149 140 160 196 291 309 271 226 197 195 190 205 201 203 206 214 222 230 236 241 245 250 253 259 267 270
181 176 168 166 165 161 159 149 142 150 142 137 137 134 131 144 148 152 154 145 125 338 326 281 286 211 198 191 209 200 207 213 220 228 236 240 242 245 248 250 254 261 266
177 173 169 167 167 162 157 150 150 158 146 142 141 135 131 125 115 130 145 148 146 162 248 268 274 244 211 200 201 193 208 223 227 233 240 245 247 247 248 250 252 255 258
174 169 169 168 167 164 158 153 148 156 150 152 147 134 128 129 100 97 121 134 141 148 193 247 243 244 215 203 198 198 220 231 235 240 244 249 251 252 252 253 254 255 256
171 171 172 171 170 169 163 157 162 163 164 167 157 150 160 149 121 106 100 112 127 136 161 260 271 256 177 205 207 230 241 240 248 246 247 250 253 257 257 256 256 257 258
175 174 172 171 174 173 170 169 175 172 173 179 180 163 179 161 146 134 119 116 135 151 153 195 265 260 234 227 226 238 246 241 244 254 251 252 255 258 259 258 258 259 260
175 174 172 175 177 175 175 178 178 179 184 189 187 182 189 169 175 169 158 161 174 151 144 164 227 253 266 256 242 268 272 274 267 262 256 255 257 260 263 263 261 261 261
175 177 178 177 177 176 179 182 181 183 189 197 197 194 192 187 190 187 184 191 182 158 150 160 219 260 269 280 198 257 285 281 279 284 284 275 268 270 270 269 266 265 263
179 176 174 176 177 179 188 186 187 188 188 195 203 202 202 200 198 194 190 190 178 175 176 179 217 253 268 269 244 235 249 282 285 265 283 285 284 282 280 274 271 269 266
176 173 178 180 185 195 196 193 189 189 190 193 204 211 214 208 208 208 206 197 186 183 192 194 210 221 240 234 230 224 228 276 292 278 256 281 272 275 272 264 268 271 268
176 177 183 184 191 200 196 197 197 189 194 199 203 207 218 217 207 207 216 216 216 214 201 189 208 225 229 225 213 233 229 226 239 253 237 276 270 270 271 273 271 272 272
179 183 187 190 193 205 202 201 200 196 196 201 201 200 207 217 211 203 212 223 232 232 221 211 215 228 228 222 207 215 227 246 263 258 199 252 267 262 274 274 274 273 273
180 185 185 189 195 207 203 201 193 188 201 212 213 209 207 212 220 211 205 222 241 252 244 228 227 238 243 242 225 209 242 248 274 274 213 217 257 268 272 269 273 274 275
183 182 186 191 194 201 201 200 191 185 202 216 224 222 218 216 219 211 206 213 232 245 248 252 248 258 257 258 240 213 216 226 248 273 253 216 252 266 288 273 270 274 277